Location: Helsinki
(60.1699°N, 24.9384°E)
Time: 15:17:21
(UTC+02:00)

Transit 2A Rocket - All Passes

Search period start: 31 October 2020 00:00
Search period end: 10 November 2020 00:00
Orbit: 586 x 916 km, 66.7° (Epoch: 30 October)

Date Brightness Start Highest point End Pass type
(mag) Time Alt. Az. Time Alt. Az. Time Alt. Az.
31 Oct - 09:04:44 10° S 09:09:55 30° ESE 09:14:54 10° ENE daylight
31 Oct - 10:46:03 10° SW 10:52:07 85° SE 10:57:48 10° NE daylight
31 Oct - 12:29:25 10° W 12:35:12 50° NNW 12:40:34 10° ENE daylight
31 Oct - 14:13:14 10° WNW 14:18:46 44° N 14:23:51 10° E daylight
31 Oct - 15:56:27 10° NW 16:02:05 73° NNE 16:07:10 10° ESE daylight
31 Oct - 17:39:25 10° NW 17:44:28 40° WSW 17:49:04 10° SSE visible
01 Nov - 08:23:09 10° SSE 08:27:38 22° ESE 08:31:58 10° ENE daylight
01 Nov - 10:03:33 10° SW 10:09:32 67° SE 10:15:10 10° NE daylight
01 Nov - 11:46:32 10° WSW 11:52:24 58° NNW 11:57:52 10° NE daylight
01 Nov - 13:30:21 10° WNW 13:35:54 43° N 13:41:00 10° ENE daylight
01 Nov - 15:13:45 10° NW 15:19:22 60° NNE 15:24:26 10° ESE daylight
01 Nov - 16:56:42 10° NW 17:02:03 56° SW 17:06:53 10° SSE visible
01 Nov - 18:40:33 10° WNW 18:43:30 15° WSW 18:46:20 10° SW visible
02 Nov - 07:42:05 10° SE 07:45:27 15° ESE 07:48:43 10° ENE daylight
02 Nov - 09:21:13 10° SSW 09:27:01 50° SE 09:32:31 10° NE daylight
02 Nov - 11:03:41 10° WSW 11:09:40 68° NNW 11:15:14 10° NE daylight
02 Nov - 12:47:26 10° WNW 12:53:02 44° N 12:58:12 10° ENE daylight
02 Nov - 14:31:01 10° WNW 14:36:34 51° NNE 14:41:37 10° E daylight
02 Nov - 16:14:01 10° NW 16:19:33 75° SW 16:24:31 10° SE daylight
02 Nov - 17:57:19 10° WNW 18:01:21 22° WSW 18:05:07 10° SSW visible
03 Nov - 07:02:47 10° ESE 07:03:21 10° E 07:03:54 10° E visible
03 Nov - 08:39:07 10° S 08:44:36 37° ESE 08:49:49 10° ENE daylight
03 Nov - 10:20:56 10° SW 10:26:58 83° NW 10:32:36 10° NE daylight
03 Nov - 12:04:30 10° W 12:10:11 47° NNW 12:15:26 10° ENE daylight
03 Nov - 13:48:14 10° WNW 13:53:45 46° NNE 13:58:47 10° E daylight
03 Nov - 15:31:21 10° NW 15:36:56 84° NE 15:41:58 10° SE daylight
03 Nov - 17:14:23 10° WNW 17:19:06 32° WSW 17:23:25 10° S visible
04 Nov - 07:57:19 10° S 08:02:15 27° ESE 08:07:00 10° ENE daylight
04 Nov - 09:38:19 10° SW 09:44:21 79° SE 09:49:59 10° NE daylight
04 Nov - 11:21:35 10° W 11:27:21 52° NNW 11:32:43 10° ENE daylight
04 Nov - 13:05:24 10° WNW 13:10:53 44° N 13:15:56 10° ENE daylight
04 Nov - 14:48:40 10° NW 14:54:16 68° NNE 14:59:18 10° ESE daylight
04 Nov - 16:31:37 10° NW 16:36:45 45° SW 16:41:24 10° SSE daylight
04 Nov - 18:16:22 10° W 18:17:58 11° WSW 18:19:32 10° WSW visible
05 Nov - 07:15:52 10° SSE 07:20:00 19° ESE 07:24:00 10° ENE daylight
05 Nov - 08:55:53 10° SSW 09:01:47 60° SE 09:07:21 10° NE daylight
05 Nov - 10:38:41 10° WSW 10:44:35 61° NNW 10:50:03 10° NE daylight
05 Nov - 12:22:30 10° WNW 12:28:01 43° N 12:33:06 10° ENE daylight
05 Nov - 14:05:58 10° NW 14:11:31 56° NNE 14:16:32 10° ESE daylight
05 Nov - 15:48:55 10° NW 15:54:18 62° SW 15:59:09 10° SSE daylight
05 Nov - 17:32:32 10° WNW 17:35:53 17° WSW 17:39:03 10° SSW visible
06 Nov - 06:35:06 10° SE 06:37:50 13° ESE 06:40:31 10° ENE visible
06 Nov - 08:13:37 10° SSW 08:19:19 45° SE 08:24:41 10° NE daylight
06 Nov - 09:55:52 10° WSW 10:01:51 73° NNW 10:07:24 10° NE daylight
06 Nov - 11:39:35 10° W 11:45:10 45° N 11:50:19 10° ENE daylight
06 Nov - 13:23:13 10° WNW 13:28:43 49° NNE 13:33:43 10° E daylight
06 Nov - 15:06:15 10° NW 15:11:45 83° SW 15:16:43 10° SE daylight
06 Nov - 16:49:26 10° WNW 16:53:42 25° WSW 16:57:39 10° S visible
07 Nov - 07:31:37 10° S 07:36:54 33° ESE 07:41:57 10° ENE daylight
07 Nov - 09:13:10 10° SW 09:19:11 89° NW 09:24:47 10° NE daylight
07 Nov - 10:56:39 10° W 11:02:19 48° NNW 11:07:34 10° ENE daylight
07 Nov - 12:40:25 10° WNW 12:45:53 45° N 12:50:52 10° E daylight
07 Nov - 14:23:35 10° NW 14:29:08 78° NE 14:34:08 10° ESE daylight
07 Nov - 16:06:34 10° WNW 16:11:24 35° WSW 16:15:49 10° S daylight
08 Nov - 06:49:55 10° SSE 06:54:35 24° ESE 06:59:05 10° ENE visible
08 Nov - 08:30:36 10° SW 08:36:35 72° SE 08:42:10 10° NE daylight
08 Nov - 10:13:43 10° W 10:19:30 55° NNW 10:24:52 10° NE daylight
08 Nov - 11:57:33 10° WNW 12:03:01 43° N 12:08:01 10° ENE daylight
08 Nov - 13:40:53 10° NW 13:46:25 63° NNE 13:51:25 10° ESE daylight
08 Nov - 15:23:49 10° NW 15:29:01 50° SW 15:33:43 10° SSE daylight
08 Nov - 17:08:02 10° WNW 17:10:22 13° WSW 17:12:36 10° SW visible
09 Nov - 06:08:40 10° SSE 06:12:22 17° ESE 06:15:57 10° ENE visible
09 Nov - 07:48:13 10° SSW 07:54:03 54° SE 07:59:32 10° NE daylight
09 Nov - 09:30:51 10° WSW 09:36:45 64° NNW 09:42:13 10° NE daylight
09 Nov - 11:14:39 10° WNW 11:20:09 43° N 11:25:12 10° ENE daylight
09 Nov - 12:58:10 10° WNW 13:03:40 53° NNE 13:08:38 10° E daylight
09 Nov - 14:41:08 10° NW 14:46:32 69° SW 14:51:23 10° SE daylight
09 Nov - 16:24:34 10° WNW 16:28:14 20° WSW 16:31:40 10° SSW daylight
